Location: Unspecified
(0.0000°N, 0.0000°E)
Time: 18:23:34
(UTC+00:00)

PRATHAM - Visible Passes

Search period start: 18 May 2026 00:00
Search period end: 28 May 2026 00:00
Orbit: 649 x 691 km, 97.8° (Epoch: 18 May)

Date Brightness Start Highest point End Pass type
(mag) Time Alt. Az. Time Alt. Az. Time Alt. Az.
18 May ? 04:46:53 10° NE 04:51:06 34° ESE 04:55:18 10° SSE visible
19 May ? 05:19:06 10° N 05:23:47 85° WNW 05:28:26 10° SSW visible
20 May ? 04:17:29 10° ENE 04:19:36 13° ESE 04:21:42 10° SE visible
21 May ? 04:48:01 10° NE 04:52:16 35° ESE 04:56:28 10° SSE visible
22 May ? 05:20:17 10° N 05:24:56 81° WNW 05:29:34 10° SSW visible
23 May ? 04:18:29 10° ENE 04:20:45 14° ESE 04:23:01 10° SE visible
24 May ? 04:49:09 10° NE 04:53:25 37° ESE 04:57:40 10° SSE visible
25 May ? 05:21:26 10° N 05:26:06 77° W 05:30:42 10° SSW visible
26 May ? 04:19:28 10° ENE 04:21:54 14° ESE 04:24:19 10° SE visible
27 May ? 04:50:16 10° NNE 04:54:34 38° ESE 04:58:50 10° S visible
